Wetbulb
63.63 63.64 63.44 63.24 62.80 62.84 62.87 63.03 63.19 63.54 64.09 64.76 65.28 65.03 64.60 64.00 62.62 58.43 54.03 59.14 63.93 69.85 68.84 66.22 63.90 61.67 62.17 60.07 59.90 60.76 54.37 51.98 50.52 50.31 46.66 46.83 43.20 44.17 44.90 41.85 41.76 42.11 41.60 43.18 45.67
63.35 63.28 63.14 63.06 62.91 62.84 62.62 62.78 63.33 63.79 64.33 64.54 65.04 64.06 64.30 63.80 59.12 54.93 63.42 68.35 68.99 69.16 62.33 61.47 59.15 59.92 58.36 57.15 57.06 56.45 53.84 48.36 49.49 49.59 46.42 46.28 44.69 43.09 42.65 41.32 40.49 41.25 43.28 44.46 45.20
63.09 62.88 62.95 62.94 63.01 62.89 62.82 63.02 63.52 63.89 64.29 64.58 64.21 63.21 63.80 62.40 57.05 53.37 67.26 67.45 68.09 65.40 62.68 61.24 60.21 58.61 55.27 55.21 52.78 51.77 49.51 48.44 48.08 48.59 47.52 43.73 42.47 44.01 41.81 38.62 38.72 38.42 40.65 42.86 43.41
62.60 62.58 62.89 62.94 62.73 62.78 62.71 62.66 63.22 63.63 64.30 64.19 63.63 63.67 62.66 59.12 48.83 54.99 66.68 68.10 67.06 64.50 61.67 59.76 58.61 55.60 52.01 50.11 51.80 46.93 48.56 48.45 46.96 46.56 44.90 41.96 41.64 38.90 40.00 38.18 40.38 41.05 42.07 42.43 41.48
62.03 62.68 62.77 62.52 62.43 62.69 62.53 62.75 63.07 63.72 63.83 63.68 63.67 64.00 59.07 53.32 51.55 56.17 66.31 65.70 59.80 59.29 58.79 58.01 55.75 55.11 50.54 49.76 49.78 46.65 46.01 46.14 45.64 44.36 42.86 42.49 39.47 38.22 37.52 39.62 41.12 41.73 42.32 41.32 40.87
61.45 62.09 62.32 62.02 61.88 61.95 62.18 62.46 63.07 63.21 62.91 63.20 63.55 61.98 54.61 50.14 55.15 56.56 56.56 58.03 58.38 58.92 57.76 58.31 55.61 54.92 50.03 47.86 48.44 47.56 45.33 43.55 43.23 41.88 41.59 39.74 38.81 39.83 38.17 40.17 40.64 41.32 41.21 40.89 40.53
61.06 61.09 61.41 61.16 61.14 61.24 61.77 61.87 62.19 62.23 62.64 63.77 63.87 56.02 54.12 50.52 55.47 56.53 56.16 56.49 58.61 58.47 55.84 56.52 56.05 54.01 50.95 45.79 48.19 45.71 41.57 42.27 42.14 42.31 40.28 41.95 36.81 35.57 38.46 40.13 40.20 40.60 41.10 40.40 40.50
60.62 60.47 60.57 60.45 60.50 60.98 61.32 61.37 61.41 62.12 61.53 61.58 59.63 54.62 51.06 54.45 56.86 54.76 56.26 55.09 56.59 57.53 56.33 56.36 55.93 52.33 50.45 49.15 46.57 44.51 44.38 40.75 42.06 41.94 41.28 41.12 36.83 36.16 38.60 39.24 39.01 40.13 39.77 39.36 40.28
60.09 59.81 60.03 59.93 59.92 60.64 60.89 60.95 61.99 60.88 61.70 59.84 55.22 53.90 50.25 55.20 52.93 53.77 54.75 52.88 53.50 53.68 53.45 53.45 53.67 50.40 49.73 47.94 45.50 44.49 43.30 42.90 39.83 43.03 41.50 40.21 38.06 36.62 38.33 38.80 38.68 39.38 38.54 38.42 39.74
59.65 59.68 59.12 59.10 59.57 60.16 60.23 60.46 61.74 57.56 57.73 54.63 54.30 51.85 51.97 49.89 51.72 52.55 54.19 53.04 52.70 51.94 51.67 51.28 51.24 47.80 47.13 45.30 41.20 41.84 42.27 42.05 41.39 41.80 40.95 40.29 38.73 36.52 37.53 38.18 38.72 38.27 38.03 38.02 38.86
59.52 59.30 58.53 58.82 59.31 59.51 59.90 58.98 56.06 53.36 53.91 50.41 50.24 49.69 50.39 52.25 53.07 51.61 51.82 51.50 52.30 51.47 48.75 49.13 47.99 42.54 40.98 41.82 42.41 42.19 41.55 40.20 39.48 40.46 39.46 39.77 38.42 36.41 37.53 38.25 37.75 37.14 37.14 37.28 38.51
59.10 58.99 58.29 58.38 58.43 58.13 58.97 55.78 54.76 55.83 49.71 50.90 50.42 50.87 51.17 51.23 49.66 50.82 53.58 49.72 50.08 47.83 47.85 47.37 42.74 42.45 42.07 41.77 41.86 41.84 40.46 40.32 38.90 39.14 38.35 38.24 36.93 37.65 37.44 37.26 37.36 36.69 36.68 36.92 38.59
58.48 58.51 58.25 58.11 57.94 59.31 58.11 56.69 58.55 56.52 51.34 49.76 50.58 50.19 50.25 51.65 47.48 47.49 50.91 49.08 47.95 46.25 46.31 44.40 41.20 42.05 41.18 40.53 40.31 40.67 38.51 37.77 36.90 37.79 38.40 36.90 35.65 34.98 37.25 37.56 38.10 37.83 37.87 37.60 38.31
57.68 57.87 57.95 57.37 56.47 59.23 57.19 58.81 60.45 58.37 47.63 47.72 48.33 49.69 50.63 50.58 46.67 49.08 48.91 48.86 47.30 44.42 44.78 42.41 41.65 40.31 40.58 38.99 39.07 39.36 37.77 36.60 36.41 35.83 36.52 37.44 33.54 35.57 36.86 35.74 36.32 36.50 36.76 36.67 38.28
57.15 57.17 56.86 55.94 59.21 56.44 58.56 61.24 61.10 57.87 41.20 47.25 47.83 52.50 50.24 48.60 47.96 47.64 49.15 49.30 45.84 44.22 44.60 40.53 40.53 40.20 39.37 37.58 38.84 37.13 39.37 38.48 38.55 37.53 37.02 36.07 33.78 32.58 34.93 33.97 34.19 35.25 36.03 36.56 38.67
56.80 56.47 55.97 58.96 59.90 59.21 60.67 60.43 59.02 47.22 40.36 45.06 48.19 47.56 47.51 47.55 46.49 47.72 47.51 48.82 47.19 44.74 44.41 41.16 42.04 40.57 38.22 38.95 38.22 38.56 39.45 38.91 38.98 38.56 34.47 36.50 34.12 33.71 34.41 31.84 33.48 34.73 35.71 36.24 38.29
56.12 55.82 56.14 57.85 57.19 60.61 60.57 57.57 47.24 42.65 47.43 44.38 45.42 47.18 47.35 45.48 45.12 45.43 44.61 44.63 44.17 42.37 42.43 41.34 39.98 40.59 39.40 38.44 39.66 39.87 39.18 37.29 35.76 34.97 34.08 34.39 32.20 34.40 33.49 33.30 33.50 33.46 34.87 36.06 38.48
55.10 54.20 56.70 56.91 59.96 59.81 57.94 51.20 42.57 46.83 47.13 46.74 46.43 46.65 45.48 45.91 44.46 43.85 44.01 43.89 42.82 42.44 43.38 42.01 38.61 38.78 39.27 36.48 35.86 36.89 37.29 35.17 29.11 32.70 33.76 33.48 32.21 32.37 35.26 35.23 35.84 35.72 35.86 36.25 37.89
53.39 57.04 57.23 58.25 58.14 58.99 53.85 45.16 45.46 48.08 48.39 45.72 45.92 44.73 45.01 44.75 44.54 44.16 43.67 43.37 41.98 41.78 41.56 41.39 38.52 38.26 37.43 37.63 36.61 37.36 37.17 36.18 33.81 34.54 31.63 36.52 33.24 33.82 34.65 34.98 35.13 34.73 35.40 34.82 37.25
54.43 55.80 56.17 56.69 57.97 57.15 50.58 45.84 48.42 48.79 47.29 47.47 44.45 46.58 44.99 45.00 43.70 43.88 43.53 42.20 41.01 41.41 42.18 41.52 38.81 38.52 37.05 37.76 37.71 37.03 36.95 34.53 36.26 30.26 28.27 35.50 34.58 32.96 31.49 32.55 33.52 33.84 33.98 34.35 37.22
53.43 52.06 54.74 56.96 57.15 53.60 46.29 47.84 49.44 48.95 47.92 46.41 46.35 45.26 46.15 44.58 45.19 44.00 43.56 40.56 41.40 40.41 41.17 41.36 40.45 37.01 37.89 37.62 36.93 36.95 36.54 35.06 34.91 33.10 30.57 30.10 32.72 35.83 33.21 32.70 32.08 33.57 34.28 34.18 36.48
52.97 47.98 55.42 56.66 49.91 50.95 48.23 49.69 46.99 47.77 47.12 46.86 47.39 46.95 46.24 45.55 44.09 44.13 43.14 42.66 42.11 42.20 40.23 41.30 41.63 40.28 37.50 36.38 36.73 36.07 35.73 34.87 34.74 33.19 32.79 30.57 31.72 35.66 34.66 33.62 33.03 33.62 34.37 34.92 37.27
50.13 51.97 55.53 55.16 46.37 47.37 48.21 46.42 47.36 45.91 46.60 45.86 45.95 47.01 46.11 45.04 42.94 43.51 42.30 40.27 41.15 40.97 40.75 41.46 41.07 39.39 34.59 34.62 36.36 35.00 35.58 34.35 33.85 33.37 31.79 30.33 34.18 35.76 34.94 34.52 34.58 33.55 34.23 34.91 37.13
50.70 46.84 50.83 51.71 52.29 48.88 47.91 46.80 45.08 44.95 46.28 46.40 46.21 46.65 44.92 43.52 43.98 41.82 40.83 39.18 39.52 39.49 39.34 39.98 40.75 40.03 38.51 38.03 38.37 34.22 33.37 33.57 34.60 32.51 34.78 33.07 35.42 33.34 34.96 34.03 33.80 34.01 34.19 34.85 36.69
50.77 49.61 49.38 46.28 47.65 48.52 49.84 48.86 45.86 42.99 44.62 46.38 44.43 45.95 45.81 43.57 42.80 41.95 41.73 38.23 38.09 40.95 40.02 40.45 39.14 39.11 39.69 36.81 36.22 36.42 35.87 32.61 30.57 35.12 31.44 35.75 34.15 36.70 36.00 33.30 33.45 33.89 33.57 34.01 35.57
49.01 48.71 48.43 49.22 47.28 47.91 46.33 46.16 46.27 46.47 44.31 43.56 44.34 46.59 47.08 45.71 45.94 43.71 42.27 41.31 40.58 40.54 39.36 40.54 39.55 37.70 38.05 35.84 34.88 33.47 35.78 35.93 34.07 33.56 33.60 34.23 33.27 35.50 34.68 34.45 33.61 33.81 32.64 32.99 34.73
52.13 50.83 48.80 45.86 46.32 46.28 46.94 47.09 46.74 47.43 44.42 43.79 45.95 46.61 45.08 45.78 44.77 45.77 44.59 44.85 43.76 41.24 39.12 39.66 39.55 37.77 38.66 35.52 35.16 34.80 37.34 36.09 35.90 36.23 35.67 33.25 35.72 35.09 33.65 32.87 33.47 33.47 32.61 33.01 34.47
MSLP
1017.03 1016.69 1016.36 1016.19 1015.97 1015.77 1015.68 1015.58 1015.34 1015.13 1014.99 1014.78 1014.53 1014.27 1013.93 1013.59 1012.98 1012.74 1012.27 1013.52 1012.93 1012.50 1012.34 1011.21 1010.68 1010.42 1010.27 1010.74 1011.12 1010.85 1010.22 1010.75 1013.06 1013.97 1016.39 1018.38 1019.23 1020.38 1021.03 1021.53 1022.14 1022.55 1023.08 1023.47 1023.23
1017.11 1016.75 1016.50 1016.19 1016.04 1015.78 1015.65 1015.54 1015.34 1015.09 1014.87 1014.67 1014.44 1014.16 1013.87 1013.61 1012.70 1011.81 1013.34 1013.00 1012.63 1012.37 1011.59 1010.61 1010.10 1010.25 1010.60 1011.22 1011.63 1011.43 1011.67 1014.07 1015.50 1016.04 1017.27 1018.60 1019.56 1020.67 1021.07 1021.83 1022.50 1022.90 1023.30 1023.42 1023.18
1017.21 1016.87 1016.56 1016.25 1016.05 1015.83 1015.63 1015.49 1015.30 1015.03 1014.76 1014.56 1014.33 1014.09 1013.76 1013.36 1012.22 1012.04 1012.69 1012.52 1012.09 1011.91 1011.15 1010.42 1010.19 1010.47 1011.28 1012.14 1012.97 1013.38 1014.14 1016.12 1016.90 1017.47 1018.47 1019.75 1020.70 1021.17 1021.78 1022.71 1023.71 1023.81 1023.70 1023.60 1023.44
1017.25 1017.00 1016.60 1016.36 1016.01 1015.81 1015.56 1015.42 1015.18 1014.90 1014.62 1014.43 1014.20 1013.94 1013.64 1012.82 1012.08 1012.41 1012.70 1012.18 1011.80 1011.08 1010.54 1010.26 1010.20 1010.79 1011.96 1012.87 1013.85 1014.94 1016.43 1017.17 1018.54 1019.18 1019.74 1020.57 1021.71 1022.59 1023.01 1024.06 1024.41 1024.42 1024.26 1023.93 1023.63
1017.26 1017.00 1016.69 1016.38 1016.05 1015.75 1015.47 1015.33 1015.04 1014.75 1014.46 1014.23 1013.98 1013.82 1013.53 1012.07 1012.89 1012.91 1012.69 1011.84 1011.17 1010.93 1010.51 1010.16 1010.17 1011.16 1012.40 1013.84 1014.72 1015.97 1017.52 1018.57 1019.56 1020.15 1020.84 1021.53 1022.25 1022.96 1023.91 1024.45 1024.46 1024.33 1024.01 1024.07 1024.04
1017.30 1017.02 1016.75 1016.43 1016.17 1015.71 1015.44 1015.19 1014.94 1014.58 1014.30 1014.01 1013.77 1013.76 1012.92 1012.28 1013.48 1013.11 1012.79 1012.01 1011.61 1011.06 1010.79 1010.68 1011.12 1012.08 1013.60 1014.80 1015.15 1016.93 1018.04 1019.23 1020.22 1020.85 1021.54 1021.99 1022.72 1023.02 1024.29 1024.45 1024.05 1023.90 1023.88 1024.12 1024.14
1017.37 1016.99 1016.75 1016.43 1016.18 1015.79 1015.38 1015.04 1014.74 1014.40 1014.09 1013.83 1013.58 1013.14 1012.29 1013.56 1013.60 1013.33 1012.98 1012.66 1012.08 1011.70 1011.92 1012.14 1012.19 1012.39 1014.25 1015.75 1016.72 1017.34 1018.07 1019.22 1020.13 1020.72 1021.55 1021.89 1022.69 1023.62 1024.31 1024.15 1023.77 1023.76 1023.69 1023.92 1023.99
1017.35 1017.04 1016.63 1016.37 1016.06 1015.81 1015.24 1014.91 1014.46 1014.15 1013.87 1013.65 1013.50 1012.78 1012.85 1013.84 1013.50 1013.54 1013.08 1012.91 1012.89 1012.86 1012.78 1013.01 1013.15 1013.63 1014.41 1016.04 1016.59 1016.48 1017.21 1017.75 1019.38 1020.52 1021.41 1022.08 1021.98 1023.76 1024.27 1023.95 1023.87 1023.67 1023.61 1023.83 1024.02
1017.43 1016.95 1016.61 1016.28 1015.92 1015.57 1015.10 1014.67 1014.24 1014.03 1013.76 1013.49 1013.13 1012.26 1012.76 1013.96 1013.61 1013.84 1013.80 1013.23 1013.13 1013.15 1013.26 1013.32 1013.31 1014.31 1015.34 1014.71 1015.09 1015.78 1015.11 1016.14 1018.75 1019.96 1020.78 1021.73 1021.63 1023.63 1024.24 1024.00 1023.87 1023.67 1023.61 1023.91 1023.91
1017.28 1017.03 1016.57 1016.20 1015.73 1015.39 1014.81 1014.46 1014.02 1014.03 1013.55 1012.95 1012.64 1012.49 1013.19 1013.56 1013.97 1013.90 1013.89 1013.74 1013.10 1012.98 1012.79 1012.80 1012.91 1013.25 1013.81 1014.03 1013.79 1014.22 1014.36 1015.85 1017.09 1019.23 1020.42 1020.74 1021.45 1023.26 1024.04 1024.07 1023.88 1023.76 1023.75 1023.94 1023.94
1017.25 1017.06 1016.52 1015.98 1015.62 1015.25 1014.22 1013.82 1013.79 1013.06 1012.97 1013.27 1013.20 1013.15 1013.43 1013.85 1014.06 1013.85 1014.03 1013.53 1013.03 1012.64 1012.14 1012.95 1012.66 1014.03 1015.24 1015.52 1015.45 1015.20 1015.24 1015.92 1017.94 1019.49 1019.96 1020.03 1020.94 1022.65 1023.66 1023.70 1023.91 1023.88 1023.93 1023.93 1023.97
1017.30 1016.96 1016.49 1015.90 1015.49 1014.98 1014.88 1013.22 1013.61 1013.82 1013.49 1013.79 1013.69 1013.65 1014.09 1014.20 1013.56 1013.79 1013.67 1013.33 1012.77 1012.37 1012.99 1013.23 1014.34 1015.92 1016.40 1016.15 1015.94 1015.71 1015.66 1016.24 1018.30 1019.53 1020.03 1019.73 1020.56 1021.93 1023.00 1023.52 1023.91 1023.87 1024.07 1024.14 1024.21
1017.29 1016.80 1016.42 1015.85 1015.21 1014.74 1013.89 1013.85 1014.00 1013.65 1012.83 1013.60 1013.71 1013.65 1014.19 1014.02 1014.43 1014.64 1014.47 1013.99 1013.37 1013.20 1013.31 1013.86 1016.05 1016.83 1016.90 1016.57 1016.32 1016.44 1016.74 1017.16 1018.03 1019.21 1019.59 1019.69 1019.67 1021.30 1022.40 1023.30 1023.51 1023.76 1024.15 1024.39 1024.58
1017.32 1016.70 1016.41 1015.72 1015.37 1013.94 1013.68 1014.11 1014.04 1013.96 1012.61 1013.00 1013.59 1013.98 1014.18 1014.30 1014.85 1015.47 1015.56 1015.20 1014.32 1014.23 1014.66 1015.65 1016.93 1017.15 1017.21 1017.28 1017.58 1017.02 1018.19 1018.25 1018.21 1018.64 1017.89 1019.18 1018.65 1020.10 1021.34 1022.51 1023.07 1023.53 1024.13 1024.40 1024.55
1017.35 1016.64 1016.33 1016.06 1014.48 1013.66 1014.07 1014.07 1013.99 1013.76 1012.17 1012.99 1013.59 1014.28 1014.25 1014.32 1015.06 1015.39 1015.95 1014.85 1014.77 1015.07 1015.60 1016.80 1017.29 1017.60 1017.63 1018.39 1018.50 1018.42 1018.71 1018.29 1018.00 1017.79 1017.75 1018.21 1018.77 1019.68 1021.43 1022.00 1023.04 1023.74 1024.32 1024.74 1024.90
1017.29 1016.66 1016.30 1015.12 1014.23 1014.24 1014.17 1014.10 1013.84 1013.19 1011.63 1012.68 1013.32 1013.61 1013.67 1014.30 1014.88 1015.27 1015.29 1015.50 1015.88 1015.48 1015.95 1017.19 1018.46 1018.74 1019.13 1019.16 1019.26 1019.29 1018.51 1018.11 1017.68 1017.06 1016.58 1017.09 1018.30 1019.19 1020.63 1022.65 1023.45 1024.12 1024.55 1024.87 1025.03
1017.13 1016.70 1016.41 1015.20 1013.82 1014.37 1014.16 1013.50 1012.72 1011.62 1011.92 1012.38 1012.72 1013.22 1013.23 1013.90 1014.56 1014.89 1015.05 1015.23 1015.44 1015.34 1015.58 1017.17 1018.19 1019.20 1019.64 1019.00 1019.15 1018.57 1017.60 1016.49 1016.22 1015.95 1015.57 1017.22 1018.31 1019.04 1021.58 1023.16 1024.02 1024.49 1024.79 1024.99 1025.21
1016.94 1016.65 1015.56 1015.22 1014.64 1014.53 1013.79 1012.89 1011.61 1010.90 1011.22 1012.41 1012.72 1013.02 1012.90 1013.77 1014.47 1014.85 1015.01 1015.14 1016.11 1016.06 1015.67 1016.04 1018.00 1019.18 1019.83 1020.02 1019.65 1018.88 1018.41 1017.62 1017.09 1015.80 1015.79 1017.27 1017.89 1019.87 1021.83 1023.23 1023.91 1024.62 1024.99 1025.15 1025.24
1016.81 1015.44 1014.61 1014.68 1015.01 1014.44 1013.29 1011.89 1010.70 1010.83 1011.68 1012.23 1012.77 1012.57 1012.83 1013.68 1014.21 1014.57 1014.93 1015.37 1016.53 1016.92 1016.57 1016.25 1017.96 1019.87 1020.45 1020.54 1020.63 1019.12 1018.78 1019.38 1018.21 1017.12 1016.81 1015.87 1018.24 1020.43 1022.01 1022.79 1023.66 1024.41 1024.95 1025.26 1025.50
1016.59 1014.96 1014.03 1014.67 1014.87 1013.99 1012.90 1011.22 1011.12 1012.11 1012.60 1012.51 1012.02 1012.11 1011.80 1012.87 1013.72 1014.30 1014.85 1016.53 1017.30 1017.94 1017.85 1017.16 1017.73 1019.38 1020.56 1021.01 1020.75 1020.08 1020.24 1019.72 1018.59 1017.80 1016.79 1015.53 1016.73 1018.65 1021.65 1022.66 1023.77 1024.42 1024.93 1025.28 1025.57
1016.82 1014.88 1014.63 1014.58 1014.70 1013.28 1011.97 1011.28 1011.79 1012.92 1013.23 1012.99 1012.28 1012.36 1012.30 1012.79 1013.38 1013.91 1015.07 1017.47 1018.08 1018.51 1018.53 1017.99 1017.92 1019.38 1020.19 1020.19 1020.15 1020.32 1019.87 1019.98 1019.75 1019.20 1018.49 1017.64 1017.51 1019.56 1021.53 1023.16 1024.02 1024.51 1024.81 1025.29 1025.55
1016.36 1014.92 1014.61 1014.46 1014.04 1012.46 1011.85 1011.72 1012.99 1013.25 1013.81 1013.46 1013.29 1013.00 1012.89 1013.28 1013.73 1014.47 1015.65 1017.53 1018.90 1019.03 1018.65 1018.59 1018.05 1017.78 1019.00 1020.56 1021.11 1020.98 1020.46 1020.44 1020.01 1020.05 1019.83 1020.11 1019.56 1020.58 1022.12 1023.47 1024.37 1024.50 1024.97 1025.35 1025.44
1015.92 1014.45 1014.66 1014.30 1012.88 1012.21 1012.57 1012.86 1013.17 1013.66 1013.53 1013.58 1013.47 1013.67 1013.91 1013.84 1014.50 1015.39 1016.91 1019.25 1019.87 1019.83 1019.54 1019.14 1018.09 1017.60 1019.11 1020.61 1020.99 1020.90 1020.90 1021.17 1021.23 1021.13 1020.18 1020.26 1019.35 1020.99 1022.24 1023.17 1023.87 1024.61 1025.04 1025.34 1025.85
1016.40 1014.71 1014.31 1014.10 1012.89 1012.29 1012.01 1012.45 1013.11 1013.97 1013.67 1013.73 1013.72 1014.13 1014.24 1014.44 1015.21 1015.97 1017.36 1019.45 1020.32 1020.42 1020.74 1020.20 1018.53 1017.70 1017.81 1018.65 1019.49 1020.23 1020.88 1021.37 1021.02 1020.81 1019.86 1019.50 1019.12 1020.74 1021.56 1022.67 1023.63 1024.37 1025.17 1025.56 1025.69
1016.33 1014.79 1014.28 1013.36 1012.92 1012.50 1011.76 1011.65 1012.33 1013.34 1013.93 1013.98 1014.08 1013.80 1013.83 1014.35 1015.02 1015.75 1017.22 1019.24 1020.29 1020.72 1020.62 1019.94 1018.60 1017.87 1017.62 1018.52 1019.23 1019.53 1020.06 1021.03 1020.95 1020.08 1020.11 1018.88 1019.30 1019.93 1021.15 1022.61 1023.62 1024.55 1025.03 1025.43 1025.80
1016.14 1015.69 1014.99 1014.16 1013.38 1012.69 1012.67 1012.20 1011.91 1012.41 1013.24 1013.57 1013.59 1013.38 1013.99 1014.14 1014.45 1015.01 1016.42 1017.54 1018.34 1020.23 1020.13 1019.86 1018.95 1018.35 1017.49 1018.37 1018.99 1019.14 1019.33 1019.76 1020.19 1020.30 1019.92 1019.63 1019.52 1020.58 1021.90 1022.99 1023.75 1024.20 1024.99 1025.60 1026.15
1016.28 1016.20 1015.41 1014.40 1013.56 1012.85 1012.42 1011.85 1011.87 1012.40 1013.58 1013.83 1013.74 1013.96 1014.61 1014.98 1015.72 1015.90 1016.60 1016.91 1017.61 1018.70 1019.33 1019.44 1018.99 1018.51 1017.40 1018.16 1018.46 1018.21 1017.46 1018.39 1018.57 1018.88 1019.05 1018.95 1019.49 1020.78 1021.88 1022.97 1023.50 1024.34 1025.39 1025.91 1026.30
Wind_Speed
12 10 9 7 6 6 7 8 9 9 9 10 10 10 10 11 13 11 7 9 10 17 11 6 4 1 3 5 6 4 5 2 5 2 11 11 7 8 10 13 13 9 9 8 11
12 11 10 8 7 6 7 8 9 9 9 10 9 10 11 9 10 3 4 11 11 9 8 7 2 2 4 4 5 6 4 7 5 5 11 8 9 8 6 8 9 8 9 10 13
13 12 11 8 7 7 7 9 10 10 10 9 10 10 10 8 9 8 16 16 14 8 9 3 3 3 7 6 8 6 6 8 9 13 12 13 9 4 7 7 8 9 11 13 14
13 13 11 9 8 8 8 9 9 10 10 9 9 9 7 9 2 11 16 15 11 7 6 4 4 3 5 6 3 11 8 8 9 11 13 11 9 13 10 6 5 5 9 12 14
13 12 12 11 10 9 9 10 10 11 10 10 8 8 7 4 7 12 13 10 4 3 3 4 1 4 6 8 15 16 14 12 11 12 11 10 9 10 8 3 2 5 8 12 14
12 12 12 11 12 10 10 10 11 11 11 10 8 5 8 2 5 10 11 12 8 8 9 3 8 14 11 6 7 14 16 16 13 11 11 10 7 2 6 2 4 7 9 12 14
12 12 12 12 12 12 11 11 11 10 9 8 5 5 8 6 3 8 8 15 13 5 11 8 5 5 8 14 17 19 14 11 10 7 8 8 6 6 3 3 6 9 10 12 13
12 13 12 11 12 14 12 12 10 8 5 3 2 8 6 2 4 7 6 10 9 14 15 13 13 11 6 17 8 5 12 8 9 8 8 4 4 6 1 4 6 9 11 12 14
14 12 12 12 12 13 13 13 7 3 3 5 6 7 6 4 0 6 6 4 6 8 8 7 6 9 9 7 8 9 5 2 7 9 4 9 2 7 2 2 7 11 12 13 14
13 13 12 12 11 14 15 7 4 3 7 5 2 5 4 3 4 5 2 3 4 3 4 2 3 6 3 5 5 8 6 3 2 8 9 9 3 6 3 3 8 12 13 13 15
12 13 12 11 12 13 13 5 7 7 6 6 5 2 4 3 5 6 3 4 4 6 5 2 1 7 7 7 6 6 4 2 2 2 6 8 5 8 5 3 8 13 12 13 15
14 13 12 12 13 10 7 6 5 6 3 2 3 4 3 2 3 11 11 5 5 2 3 4 7 4 2 5 3 3 4 2 3 3 6 3 7 8 6 2 6 11 12 14 16
15 13 13 13 12 5 4 2 4 4 6 4 2 2 2 2 4 9 10 2 5 7 4 7 5 0 3 5 5 2 7 6 5 3 8 6 11 8 8 4 4 9 9 13 16
14 13 15 15 4 1 1 3 2 4 6 10 6 4 2 1 3 6 5 4 2 3 5 7 3 1 1 1 8 5 5 5 5 6 3 4 3 9 8 5 6 10 11 13 14
14 13 14 7 7 3 5 0 0 4 7 4 5 3 3 2 2 5 3 1 3 4 4 6 3 7 3 4 6 6 4 4 4 8 6 8 6 9 6 6 9 11 10 12 14
14 13 15 5 4 3 1 1 4 7 5 5 4 5 6 2 3 1 2 5 2 3 10 6 2 4 6 2 2 2 3 2 3 5 7 7 3 9 4 3 9 11 10 12 14
14 14 9 7 2 1 3 5 7 9 1 6 4 5 3 4 4 1 1 3 3 5 7 6 4 3 5 6 5 8 9 3 5 6 5 5 4 8 8 4 7 9 11 12 13
14 12 4 4 2 3 5 7 10 3 1 3 3 6 5 5 3 2 3 4 3 3 3 4 6 5 6 5 5 5 6 4 6 6 7 4 3 6 8 1 5 5 7 11 12
15 5 5 3 4 4 8 11 5 3 5 6 5 7 7 4 3 5 2 2 3 3 4 3 5 4 5 4 4 4 2 3 6 3 5 3 7 6 5 4 7 6 7 10 12
6 5 5 3 5 6 9 13 4 3 3 5 7 6 7 8 6 5 6 3 3 1 3 3 3 1 3 3 3 4 2 3 4 6 7 5 2 5 6 4 7 8 9 11 12
4 5 5 4 5 7 11 15 5 4 2 5 4 2 5 4 8 4 3 3 1 3 2 2 3 6 3 3 3 3 3 1 4 3 4 7 4 7 7 4 6 7 7 9 11
4 5 3 4 8 9 13 8 3 7 4 3 3 3 6 5 5 5 3 4 2 2 1 3 5 2 5 3 2 3 3 4 2 1 2 3 3 4 6 4 2 5 6 8 9
4 4 3 5 8 9 4 3 2 5 7 6 6 3 1 5 4 3 3 2 2 3 0 2 3 3 6 4 4 6 4 1 3 0 7 3 2 5 3 3 1 4 5 7 9
3 4 4 6 5 8 13 12 8 3 4 4 5 4 5 5 3 5 6 3 3 1 1 2 4 6 5 4 1 4 7 8 6 3 2 10 11 8 5 1 2 2 4 7 8
3 4 3 6 11 11 11 7 15 8 6 8 5 11 9 5 6 6 6 6 4 6 4 4 5 3 4 3 4 7 7 10 12 10 6 1 11 12 6 1 1 1 3 6 8
3 4 2 2 4 16 7 10 12 9 11 8 9 13 11 6 5 7 10 7 4 9 6 4 1 2 4 3 6 10 11 11 14 14 16 17 16 6 5 3 2 1 2 5 7
2 1 4 2 5 8 13 13 14 10 5 4 10 7 11 4 5 8 6 5 7 7 10 6 3 3 2 3 5 10 13 14 8 8 7 7 3 7 5 4 4 2 1 5 6
Wind_Direction
343 346 347 342 337 328 324 315 312 318 316 312 315 316 311 309 302 236 41 341 308 313 306 274 223 159 56 57 19 306 258 77 41 183 122 138 115 83 94 91 69 73 50 3 336
344 346 343 347 332 327 318 308 309 312 311 312 314 313 309 308 271 15 18 335 319 304 251 235 194 211 75 29 20 353 333 45 18 92 130 128 108 126 124 70 58 46 23 357 345
346 345 345 345 332 325 318 313 310 309 308 310 311 309 305 277 260 31 3 337 320 287 254 268 103 74 60 50 14 23 71 107 77 92 111 107 103 117 132 69 35 10 354 349 347
348 343 345 336 337 330 325 315 309 309 305 304 307 309 320 254 352 4 348 315 309 288 236 208 217 87 78 46 57 108 76 101 101 111 122 108 105 79 59 76 24 356 341 348 348
350 343 341 336 330 327 325 316 312 311 307 304 306 311 282 195 30 344 334 1 331 312 310 260 274 119 97 106 88 92 102 97 103 101 104 110 86 95 83 70 2 334 356 353 352
350 344 340 336 324 325 319 313 311 309 303 297 295 317 255 251 347 6 9 19 23 71 58 39 70 86 80 59 33 117 111 112 116 115 126 117 116 214 75 328 345 352 356 357 350
347 344 338 333 324 318 311 311 308 303 293 285 274 279 57 61 21 7 42 41 41 47 76 62 98 336 108 99 113 123 113 125 146 144 138 146 136 78 44 301 351 355 354 353 353
340 340 339 330 326 314 313 309 303 293 275 237 259 253 60 99 354 18 343 68 66 77 84 85 84 73 77 120 149 152 166 179 165 177 157 266 97 110 47 353 356 344 356 356 354
335 340 334 329 326 315 310 305 290 259 230 247 252 261 110 146 287 5 17 46 90 93 83 104 82 101 145 184 174 190 297 139 160 207 146 228 23 134 207 350 351 355 354 357 353
339 329 331 328 327 316 305 272 267 250 240 255 268 218 156 74 15 330 24 315 258 194 180 201 163 149 64 303 349 339 289 130 305 174 221 234 222 161 183 336 351 350 359 353 353
334 325 327 329 322 319 315 226 214 186 47 25 24 66 105 92 217 46 337 267 225 232 254 40 31 50 29 352 332 313 307 331 93 131 258 243 222 189 195 278 356 352 354 352 354
330 327 325 322 314 316 280 282 30 355 135 81 92 97 49 312 238 35 345 254 242 228 182 184 72 52 344 24 327 280 293 75 109 166 247 228 226 186 208 264 343 354 348 351 350
330 331 321 316 311 277 314 23 336 317 256 146 98 70 46 316 41 10 348 354 39 78 64 28 54 75 275 17 313 37 345 338 313 165 244 269 232 186 214 210 298 359 1 358 355
329 331 320 319 290 89 139 122 317 305 263 148 178 115 163 133 97 11 18 333 117 110 61 66 72 321 257 65 340 285 6 291 250 235 344 208 336 182 164 193 17 -0 6 357 354
328 329 318 318 336 226 71 108 237 241 269 112 121 66 132 310 71 75 346 28 40 101 253 82 45 11 24 8 330 16 330 295 245 238 302 178 256 106 170 199 357 1 1 357 354
328 328 321 229 229 60 217 176 226 232 242 128 133 163 178 99 88 104 119 72 22 90 68 87 86 30 0 323 355 344 250 207 235 261 236 104 288 134 141 30 352 354 352 356 355
327 319 305 302 22 123 234 218 221 247 109 140 156 187 213 138 123 4 70 110 296 228 179 156 69 104 350 271 202 248 272 255 218 212 358 115 251 52 124 66 4 345 348 352 357
320 312 194 298 298 241 217 215 241 27 182 85 145 164 221 170 134 160 202 189 99 282 274 251 183 354 10 22 325 354 332 359 301 325 330 143 270 98 125 147 21 350 346 353 356
313 225 240 144 276 235 232 215 244 288 67 163 157 213 178 180 278 218 248 74 59 5 297 285 124 117 54 23 310 49 354 18 280 212 271 194 118 150 166 254 15 352 354 358 354
304 264 218 135 245 227 233 234 203 81 122 210 234 223 216 175 202 208 177 79 137 347 322 68 210 140 110 261 86 333 47 237 195 324 313 302 303 64 180 351 358 357 353 356 351
268 240 92 180 236 216 225 225 163 126 203 223 252 236 267 177 231 200 99 117 206 144 274 308 257 118 204 208 10 177 188 193 280 298 305 310 85 50 102 27 352 350 351 354 352
292 235 103 201 210 215 224 226 55 161 183 188 279 268 227 178 204 223 203 55 113 178 173 59 314 277 45 97 9 309 303 294 284 134 276 277 310 110 101 40 347 323 348 351 350
252 262 139 230 217 206 158 134 209 180 192 177 188 254 211 200 218 215 148 94 140 204 354 118 187 249 177 185 190 250 175 163 112 75 233 295 24 135 146 285 16 310 345 348 354
281 222 166 208 265 257 207 215 190 207 192 206 138 155 170 183 206 179 157 146 157 183 20 273 279 269 308 13 40 201 199 207 216 242 280 244 291 160 201 326 304 308 356 355 353
217 260 345 191 218 232 211 240 202 182 227 199 186 218 197 183 184 195 144 145 173 158 191 260 273 283 271 265 238 263 235 197 215 243 246 25 298 316 6 96 321 332 344 349 358
282 254 210 332 282 215 206 217 206 184 170 203 234 190 202 209 226 183 170 187 176 173 192 185 263 290 265 184 246 262 249 231 228 248 265 274 285 90 111 125 223 249 351 350 358
132 254 282 133 219 208 216 225 216 177 193 345 221 168 197 163 78 49 73 73 128 160 186 181 216 247 273 167 280 259 237 206 215 210 224 250 52 156 180 203 237 226 358 351 350